Location: Newark
(46.7636°N, 1.8358°W)
Time: 00:55:31
(UTC+00:00)

Vanguard 1 Rocket - Pass Details

Date: 25 October 2019
Orbit: 651 x 4225 km, 34.3° (Epoch: 14 November)

Event Time Altitude Azimuth Distance (km) Brightness Sun altitude
Rises 16:51:53 0° 279° (W) 7,650 13.4 1.1°
Reaches altitude 10° 16:58:54 10° 266° (W) 7,043 13.7 -0.1°
Maximum altitude 17:14:17 21° 228° (SW) 6,479 12.8 -2.6°
Drops below altitude 10° 17:29:56 10° 189° (S) 7,041 12.2 -5.2°
Sets 17:37:13 0° 175° (S) 7,628 12.2 -6.4°
